Terminal Aerodrome Forecast
Issued by NWS

Home | Current Version | Previous Version | Text Only | Print | Product List | Glossary On
Versions: 1 2 3 4 5 6 7 8 9 10 11 12 13 14
113
FTUS45 KRIW 241921 AAA
TAFWRL
TAF AMD
KWRL 241921Z 2419/2518 33007KT 6SM -SN SCT011 BKN015 OVC025
      TEMPO 2419/2421 2SM -SN BR
     FM250200 VRB05KT P6SM VCSH SCT015 OVC030
     FM250500 VRB05KT P6SM SCT030 BKN150
     FM251000 VRB03KT P6SM VCFG SCT004 SCT150
     FM251700 VRB04KT P6SM FEW150=

USA.gov is the U.S. government's official web portal to all federal, state and local government web resources and services.